    Observer details:
    104 San Marcello Pistoiese.  Observers P. Bacci, M. Maestripieri.  Measurers
        P. Bacci, L. Tesi, G. Fagioli.  0.60-m f/4 reflector + CCD.
    160 Castelmartini.  Observers M. Jaeger, E. Prosperi, S. Prosperi, W. Vollmann.
        Measurer E. Prosperi.  0.35-m f/10 Schmidt-Cassegrain + CCD.
    203 GiaGa Observatory.  Observers S. Foglia, G. Galli.  Measurer G. Galli.
        0.28-m f/6.8 Schmidt-Cassegrain + CCD.
    204 Schiaparelli Observatory.  Observer L. Buzzi.  0.60-m f/4.64 reflector
        + CCD.
    246 Klet Observatory-KLENOT.  Observers J. Ticha, M. Tichy.  Measurer M. Tichy.
        1.06-m KLENOT Telescope + CCD.
    557 Ondrejov.  Observers M. Masek, H. Kucakova.  Measurer M. Masek.  0.65-m
        f/3.6 reflector + CCD.
    585 Kyiv comet station.  Observer A. Baransky.  0.7-m f/4 reflector + CCD.
    587 Sormano.  Observers E. Calo', L. Catallo, M. Conti, R. Ferracani, R. Nava.
        Measurer R. Ferracani.  0.5-m f/6.8 reflector + CCD.
    595 Farra d'Isonzo.  Observers M. Ceschia, U. Montanar, E. Pettarin, F. Piani.
        Measurer E. Pettarin.  0.61-m f/4.0 reflector + CCD.
    703 Catalina Sky Survey.  Observer E. J. Christensen.  Measurers
        B. M. Africano, E. J. Christensen, D. C. Fuls, A. R. Gibbs, A. D. Grauer,
        J. A. Johnson, R. A. Kowalski, S. M. Larson, G. J. Leonard, R. L. Seaman,
        F. C. Shelly.  0.68-m Schmidt + 10K CCD.
    G96 Mt. Lemmon Survey.  Observer B. M. Africano.  Measurers B. M. Africano,
        E. J. Christensen, D. C. Fuls, A. R. Gibbs, A. D. Grauer, J. A. Johnson,
        R. A. Kowalski, S. M. Larson, G. J. Leonard, R. L. Seaman, F. C. Shelly.
        1.5-m reflector + 10K CCD.
    I52 Steward Observatory, Mt. Lemmon Station.  Observers E. J. Christensen,
        B. M. Africano.  Measurers B. M. Africano, E. J. Christensen, D. C. Fuls,
        A. R. Gibbs, A. D. Grauer, J. A. Johnson, R. A. Kowalski, S. M. Larson,
        G. J. Leonard, R. L. Seaman, F. C. Shelly.  1.0-m reflector + CCD.
    J95 Great Shefford.  Observer P. Birtwhistle.  0.40-m f/6.0 Schmidt-Cassegrain
        + CCD.
    K65 Cesena.  Observer V. Tinella.  0.40-m f/7 Schmidt-Cassegrain + CCD.
    K88 GINOP-KHK, Piszkesteto.  Observers B. Ignacz, G. Csornyei.  Measurer
        K. Sarneczky.  0.60-m Schmidt + CCD.
    L01 Visnjan Observatory, Tican.  Observer K. Korlevic.  1.0-m f/2.9 reflector
        + CCD.
    P93 Space Tracking and Communications Center, JAXA.  Observers K. Nishiyama,
        S. Okumura.  1.0-m f/3.0 reflector + CCD.
    
    Orbital elements:
    2018 HO1                                                 Earth MOID = 0.0237 AU
    Epoch 2018 Mar. 23.0 TT = JDT 2458200.5                 MPC
    M   5.47928              (2000.0)            P               Q
    n   0.75801293     Peri.  322.20202     -0.98279896     -0.14999993
    a   1.1912922      Node   209.71329     +0.17034429     -0.96162721
    e   0.1610506      Incl.   12.55349     -0.07133744     -0.22972404
    P   1.30           H   25.4           G   0.15           U   6
    Residuals in seconds of arc
    180421 G96  0.1-  0.2-    180421 557  0.1-  0.3-    180422 L01  0.7+  0.0
    180421 G96  0.2+  0.1-    180421 160  0.4+  0.1+    180422 L01  0.7+  0.5+
    180421 G96  0.3-  0.6-    180421 203  0.2+  0.4+    180422 J95  0.5+  0.1-
    180421 G96  0.1-  0.1-    180421 160  0.9-  1.3+    180422 L01  0.6-  0.5-
    180421 703  0.4-  0.2+    180421 203  0.4-  0.0     180422 J95  0.4-  0.1-
    180421 703  0.1+  0.0     180421 204  0.1+  0.1+    180422 J95  0.3-  0.2-
    180421 I52  0.3+  0.2+    180422 204  0.1-  0.1-    180422 K65  0.3+  0.3+
    180421 I52  0.3-  0.1-    180422 204  0.2+  0.3-    180422 K65  0.7+  0.1-
    180421 I52  0.1-  0.2-    180422 I52  0.2+  0.1+    180422 246  1.5-  0.3+
    180421 I52  0.1-  0.1+    180422 I52  0.2-  0.3-    180422 246  0.3-  1.1+
    180421 P93  0.2+  0.0     180422 I52  0.1+  0.3+    180422 246  0.6+  0.5-
    180421 P93  0.5+  0.2+    180422 I52  0.4-  0.0     180422 K88  0.1+  0.3+
    180421 104  0.4-  0.3+    180422 P93  0.1+  0.0     180422 K88  0.2+  0.6+
    180421 104  0.5-  0.2-    180422 P93  0.1+  0.1+    180422 K88  0.5+  0.6+
    180421 104  0.0   0.2+    180422 P93  0.1+  0.5-    180423 I52  0.0   0.1-
    180421 595  0.8+  0.0     180422 P93  0.3+  0.0     180423 I52  0.2-  0.3+
    180421 595  0.3+  0.1-    180422 P93  0.5-  0.3-    180423 I52  0.1+  0.0
    180421 595  0.1+  0.3+    180422 585  0.5-  0.4-    180423 I52  0.3-  0.6+
    180421 246  0.2-  1.2+    180422 585  0.2+  0.2+    180424 I52  0.2+  0.1-
    180421 246 (4.1-  2.3+)   180422 585  0.0   0.0     180424 I52  0.0   0.0
    180421 595  0.2+  0.1+    180422 585  0.2-  0.1-    180424 I52  0.2-  0.3+
    180421 595  0.6+  0.1+    180422 585  0.2-  0.4-    180424 I52  0.1-  0.3+
    180421 557  0.4+  0.6-    180422 585  0.4-  0.6-    180424 587  0.1-  0.3-
    180421 557  0.6+  0.2-    180422 585  0.3-  0.2-    180424 587  0.1-  0.1-
    180421 557  0.5-  0.6-    180422 K65  0.3+  0.2+    180424 587  0.0   0.2-
    180421 557  0.2+  0.3-    180422 L01  0.5-  0.2-    180424 587  0.5+  0.1+
    
    Ephemeris:
    2018 HO1                 a,e,i = 1.19, 0.16, 13                  q = 0.9994
    Date    TT    R. A. (2000) Decl.     Delta      r     Elong.  Phase     V
    2018 03 25    06 02 35.9 -49 51 25   0.1067  1.0015    89.3    84.6    23.5
    ...
    2018 04 09    07 45 37.1 -45 09 51   0.05194 1.0131   101.6    75.5    21.6
    ...
    2018 04 17    10 14 16.3 -23 02 43   0.03030 1.0233   129.6    49.1    19.7
    ...
    2018 04 23    12 24 08.3 +12 12 00   0.03273 1.0325   145.6    33.4    19.4
    2018 04 24    12 41 27.5 +16 38 55   0.03500 1.0342   144.1    34.8    19.6
    2018 04 25    12 57 13.9 +20 25 27   0.03763 1.0359   142.2    36.5    19.8
    ...
    2018 05 01    14 04 29.0 +33 02 51   0.05777 1.0467   131.6    46.0    21.1
    ...
    2018 05 09    14 49 44.0 +38 04 16   0.08929 1.0627   124.6    51.4    22.2
    ...
    2018 05 24    15 25 23.3 +38 29 04   0.1515  1.0967   120.2    52.9    23.4
    
    A. U. Tomatic                (C) Copyright 2018 MPC           M.P.E.C. 2018-H72
    

    Read MPEC 2018-H71 Read MPEC 2018-H73


    MPEC number:

    Enter an MPEC number in one of the following forms:

    • 1997-B01 (the full form)
    • J97B01 (the packed version of the full form)
    • B01 (the abbreviated form)